FW4738 Weather Reports


Display with metric or nautical units.
time (UTC)temp
F
wind
direction
speed
MPH
gust
MPH
rain 1hr
in
rain 24hr
in
rain mn
in
humidity
%
barometer
mb
20260510060632 51 205 4.0 10.0 0.00 0.05 0.00 91 1005.6
20260510060217 51 193 4.0 11.0 0.00 0.05 0.00 91 1005.5
20260510060200 51 208 4.0 9.0 0.00 0.05 0.00 90 1005.6
20260510054634 51 210 4.0 11.0 0.00 0.05 0.00 90 1005.7
20260510054438 52 197 5.0 15.0 0.00 0.05 0.00 90 1005.3
20260510054327 51 205 5.0 15.0 0.00 0.05 0.00 90 1005.5
20260510053129 52 223 4.0 11.0 0.00 0.05 0.00 90 1005.2
20260510053003 52 254 4.0 11.0 0.00 0.05 0.00 90 1005.2
20260510052356 52 182 5.0 14.0 0.00 0.05 0.00 90 1005.1
20260510052255 52 211 5.0 11.0 0.00 0.05 0.00 90 1005.1
20260510051453 52 238 6.0 14.0 0.00 0.05 0.00 89 1005.0
20260510050628 52 215 6.0 16.0 0.00 0.05 0.00 89 1004.9
20260510050538 52 192 7.0 16.0 0.00 0.05 0.00 89 1004.8
20260510045629 52 191 7.0 13.0 0.00 0.05 0.00 89 1004.7
20260510045128 53 183 7.0 19.0 0.00 0.05 0.00 88 1004.7
20260510044629 53 199 7.0 19.0 0.00 0.05 0.00 88 1004.7
20260510044128 53 198 7.0 18.0 0.00 0.05 0.00 88 1004.6
20260510043629 53 212 7.0 18.0 0.00 0.05 0.00 88 1004.6
20260510043129 53 165 6.0 15.0 0.00 0.05 0.00 88 1004.5
20260510042631 53 185 6.0 16.0 0.00 0.05 0.00 88 1004.5
20260510042130 53 202 7.0 18.0 0.00 0.05 0.00 88 1004.0
20260510041628 53 198 7.0 18.0 0.00 0.05 0.00 88 1004.3
20260510041128 53 194 6.0 17.0 0.00 0.05 0.00 89 1004.2
20260510040628 54 215 6.0 17.0 0.01 0.05 0.00 89 1004.2
20260510040128 54 188 6.0 15.0 0.02 0.05 0.00 89 1004.3
20260510035626 54 246 7.0 14.0 0.03 0.05 0.03 89 1004.2
20260510035127 54 219 8.0 16.0 0.05 0.05 0.03 89 1004.2
20260510034627 54 201 7.0 19.0 0.05 0.05 0.03 89 1004.2
20260510034129 53 209 6.0 19.0 0.05 0.05 0.03 89 1004.1
20260510033653 53 126 5.0 12.0 0.05 0.05 0.03 89 1004.2
20260510033123 53 192 6.0 14.0 0.05 0.05 0.03 89 1004.1
20260510032623 53 186 6.0 14.0 0.05 0.05 0.03 88 1004.0
20260510032123 53 189 6.0 13.0 0.05 0.05 0.03 88 1004.0
20260510031623 53 179 6.0 13.0 0.05 0.05 0.03 87 1004.1
20260510031123 54 192 6.0 14.0 0.05 0.05 0.03 86 1004.1
20260510030641 54 190 5.0 14.0 0.04 0.04 0.03 85 1004.1
20260510030126 55 182 6.0 22.0 0.03 0.03 0.03 83 1004.2
20260510025627 55 189 7.0 22.0 0.02 0.02 0.00 81 1004.1
20260510025129 56 192 7.0 17.0 0.00 0.00 0.00 79 1003.9
20260510024623 56 182 7.0 16.0 0.00 0.00 0.00 78 1003.7
20260510024116 56 168 7.0 16.0 0.00 0.00 0.00 76 1003.7
20260510023630 56 182 7.0 14.0 0.00 0.00 0.00 76 1003.7
20260510023114 56 193 7.0 11.0 0.00 0.00 0.00 75 1003.7
20260510022830 56 184 7.0 12.0 0.00 0.00 0.00 74 1003.6
20260510022736 56 175 7.0 11.0 0.00 0.00 0.00 75 1003.7
20260510021951 56 173 6.0 12.0 0.00 0.00 0.00 74 1003.6
20260510021545 57 159 6.0 12.0 0.00 0.00 0.00 73 1003.6
20260510021537 57 176 6.0 12.0 0.00 0.00 0.00 73 1003.7
20260510021530 57 153 5.0 10.0 0.00 0.00 0.00 74 1003.3
20260510021136 56 179 5.0 12.0 0.00 0.00 0.00 74 1003.5
20260510015112 57 157 6.0 14.0 0.00 0.00 0.00 73 1003.8
20260510014952 57 175 5.0 14.0 0.00 0.00 0.00 72 1003.9
20260510014112 57 148 5.0 9.0 0.00 0.00 0.00 72 1004.1
20260510013607 57 164 5.0 9.0 0.00 0.00 0.00 71 1004.1
20260510013448 57 182 5.0 7.0 0.00 0.00 0.00 71 1004.2
20260510012608 57 135 5.0 9.0 0.00 0.00 0.00 71 1004.1
20260510012501 57 161 5.0 9.0 0.00 0.00 0.00 71 1004.0
20260510011820 58 184 4.0 11.0 0.00 0.00 0.00 70 1004.0
20260510011726 58 184 5.0 8.0 0.00 0.00 0.00 71 1004.0
20260510010605 58 155 4.0 11.0 0.00 0.00 0.00 70 1003.9
20260510010106 58 0 4.0 7.0 0.00 0.00 0.00 70 1003.9
20260510005602 58 175 4.0 7.0 0.00 0.00 0.00 70 1004.0
20260510005102 58 173 4.0 7.0 0.00 0.00 0.00 70 1004.1
20260510004940 58 184 4.0 8.0 0.00 0.00 0.00 70 1004.1
20260510004104 58 180 4.0 8.0 0.00 0.00 0.00 70 1004.1
20260510003945 58 176 4.0 9.0 0.00 0.00 0.00 69 1004.1
20260510003103 58 175 4.0 9.0 0.00 0.00 0.00 69 1003.9
20260510002604 58 182 4.0 7.0 0.00 0.00 0.00 68 1004.1
20260510002107 59 180 4.0 7.0 0.00 0.00 0.00 68 1004.3
20260510001605 59 248 4.0 12.0 0.00 0.00 0.00 67 1004.3
20260510001446 59 182 5.0 12.0 0.00 0.00 0.00 67 1004.4
20260510000605 60 187 4.0 11.0 0.00 0.00 0.00 66 1004.5
20260510000105 60 187 4.0 7.0 0.00 0.00 0.00 66 1004.5
20260509235602 60 176 4.0 9.0 0.00 0.00 0.00 66 1004.6
20260509235102 60 184 4.0 15.0 0.00 0.00 0.00 65 1004.7
20260509234936 60 178 5.0 15.0 0.00 0.00 0.00 65 1004.8
20260509234327 61 191 6.0 16.0 0.00 0.00 0.00 63 1004.8
20260509234227 61 211 6.0 16.0 0.00 0.00 0.00 64 1004.8
20260509233531 61 208 6.0 14.0 0.00 0.00 0.00 63 1004.8
20260509232558 61 202 7.0 17.0 0.00 0.00 0.00 62 1004.7
20260509232056 61 211 7.0 17.0 0.00 0.00 0.00 61 1004.7
20260509231555 62 208 7.0 23.0 0.00 0.00 0.00 61 1004.6
20260509231057 62 180 7.0 23.0 0.00 0.00 0.00 60 1004.5
20260509230556 62 209 7.0 17.0 0.00 0.00 0.00 59 1004.4
20260509230055 62 173 7.0 19.0 0.00 0.00 0.00 59 1004.4
20260509225554 63 211 7.0 19.0 0.00 0.00 0.00 58 1004.3
20260509225055 63 196 6.0 17.0 0.00 0.00 0.00 57 1004.3
20260509224554 63 200 7.0 17.0 0.00 0.00 0.00 56 1004.2
20260509224054 64 224 7.0 17.0 0.00 0.00 0.00 55 1004.0
20260509223933 64 206 6.0 17.0 0.00 0.00 0.00 54 1004.0
20260509223054 64 189 7.0 22.0 0.00 0.00 0.00 53 1004.0
20260509222925 64 212 7.0 22.0 0.00 0.00 0.00 53 1004.0
20260509222431 65 182 6.0 19.0 0.00 0.00 0.00 51 1003.9
20260509221550 65 196 7.0 19.0 0.00 0.00 0.00 50 1003.9
20260509221052 65 177 6.0 14.0 0.00 0.00 0.00 48 1003.9
20260509220924 66 212 5.0 14.0 0.00 0.00 0.00 46 1004.0
20260509220045 66 175 5.0 11.0 0.00 0.00 0.00 46 1004.1
20260509215545 66 178 5.0 11.0 0.00 0.00 0.00 45 1004.1
20260509215045 66 201 6.0 14.0 0.00 0.00 0.00 43 1004.1
20260509214545 67 192 6.0 14.0 0.00 0.00 0.00 43 1004.1
20260509214043 67 189 6.0 15.0 0.00 0.00 0.00 44 1004.1
20260509213544 67 187 6.0 18.0 0.00 0.00 0.00 41 1004.2
20260509213043 67 207 7.0 18.0 0.00 0.00 0.00 41 1004.2
20260509212544 68 175 7.0 15.0 0.00 0.00 0.00 41 1004.2
20260509212044 68 202 6.0 14.0 0.00 0.00 0.00 44 1004.3
20260509211537 67 157 6.0 12.0 0.00 0.00 0.00 45 1004.2
20260509211435 67 183 6.0 13.0 0.00 0.00 0.00 44 1004.4
20260509210540 67 191 6.0 13.0 0.00 0.00 0.00 42 1004.4
20260509210500 67 189 6.0 12.0 0.00 0.00 0.00 46 1004.4
20260509205535 67 167 6.0 12.0 0.00 0.00 0.00 42 1004.3
20260509205035 68 190 7.0 14.0 0.00 0.00 0.00 42 1004.3
20260509204534 68 178 8.0 14.0 0.00 0.00 0.00 42 1004.4
20260509204034 69 175 7.0 13.0 0.00 0.00 0.00 42 1004.4
20260509203536 69 152 6.0 13.0 0.00 0.00 0.00 44 1004.3
20260509203037 68 227 7.0 13.0 0.00 0.00 0.00 44 1004.4
20260509202530 66 198 7.0 13.0 0.00 0.00 0.00 45 1004.4
20260509202032 66 140 7.0 15.0 0.00 0.00 0.00 41 1004.5
20260509201530 68 159 7.0 15.0 0.00 0.00 0.00 42 1004.6
20260509201029 69 209 8.0 15.0 0.00 0.00 0.00 39 1004.6
20260509200531 69 190 8.0 17.0 0.00 0.00 0.00 42 1004.5
20260509200059 69 173 6.0 17.0 0.00 0.00 0.00 38 1004.6
20260509195528 68 174 5.0 15.0 0.00 0.00 0.00 37 1004.7
20260509195029 68 173 5.0 15.0 0.00 0.00 0.00 37 1004.7
20260509194531 69 201 7.0 19.0 0.00 0.00 0.00 36 1004.8
20260509194359 69 175 8.0 19.0 0.00 0.00 0.00 38 1004.9
20260509193911 70 191 7.0 14.0 0.00 0.00 0.00 37 1005.0
20260509193045 70 188 6.0 14.0 0.00 0.00 0.00 34 1004.8
20260509192529 69 171 7.0 14.0 0.00 0.00 0.00 34 1004.9
20260509192030 69 184 7.0 15.0 0.00 0.00 0.00 34 1005.1
20260509191528 70 136 7.0 15.0 0.00 0.00 0.00 31 1005.2
20260509191029 70 194 8.0 16.0 0.00 0.00 0.00 30 1005.3
20260509190530 71 177 7.0 16.0 0.00 0.00 0.00 32 1005.3
20260509190517 69 147 5.0 10.0 0.00 0.00 0.00 33 1005.5
20260509190104 70 188 5.0 12.0 0.00 0.00 0.00 32 1005.4
20260509185156 69 188 6.0 14.0 0.00 0.00 0.00 31 1005.7
20260509184029 69 233 5.0 16.0 0.00 0.00 0.00 35 1005.7
20260509183530 69 242 4.0 16.0 0.00 0.00 0.00 33 1005.8
20260509183034 69 167 4.0 10.0 0.00 0.00 0.00 31 1005.8
20260509182530 69 136 7.0 14.0 0.00 0.00 0.00 31 1005.9
20260509182029 69 157 7.0 14.0 0.00 0.00 0.00 30 1006.1
20260509181532 69 192 5.0 14.0 0.00 0.00 0.00 33 1006.1
20260509181414 69 160 5.0 14.0 0.00 0.00 0.00 29 1006.1
20260509180531 69 103 6.0 14.0 0.00 0.00 0.00 30 1006.2
20260509180036 69 169 6.0 16.0 0.00 0.00 0.00 30 1006.2
20260509175535 68 156 5.0 16.0 0.00 0.00 0.00 34 1006.2
20260509175400 68 139 6.0 12.0 0.00 0.00 0.00 31 1006.3
20260509174534 68 166 7.0 14.0 0.00 0.00 0.00 34 1006.5
20260509174402 68 157 6.0 14.0 0.00 0.00 0.00 34 1006.5
20260509173533 68 178 4.0 15.0 0.00 0.00 0.00 31 1006.6
20260509173031 68 177 5.0 15.0 0.00 0.00 0.00 32 1006.7
20260509172739 67 144 5.0 12.0 0.00 0.00 0.00 38 1006.9
20260509172649 68 180 5.0 10.0 0.00 0.00 0.00 37 1006.7
20260509171530 67 153 6.0 13.0 0.00 0.00 0.00 29 1006.9
20260509171030 67 190 6.0 13.0 0.00 0.00 0.00 31 1007.0
20260509170530 68 188 5.0 10.0 0.00 0.00 0.00 35 1007.1
20260509170400 67 183 5.0 16.0 0.00 0.00 0.00 33 1007.2
20260509165901 66 200 6.0 16.0 0.00 0.00 0.00 35 1007.2
20260509165031 67 193 6.0 12.0 0.00 0.00 0.00 34 1007.3
20260509164530 67 178 7.0 14.0 0.00 0.00 0.00 37 1007.5
20260509164031 67 171 6.0 14.0 0.00 0.00 0.00 35 1007.5
20260509163530 67 153 5.0 12.0 0.00 0.00 0.00 32 1007.6
20260509163031 66 160 5.0 14.0 0.00 0.00 0.00 34 1007.6
20260509162531 66 211 6.0 14.0 0.00 0.00 0.00 38 1007.8
20260509162031 66 173 5.0 11.0 0.00 0.00 0.00 36 1007.9
20260509161534 65 187 6.0 15.0 0.00 0.00 0.00 34 1008.0
20260509161033 66 153 5.0 15.0 0.00 0.00 0.00 38 1008.1
20260509160910 65 167 5.0 12.0 0.00 0.00 0.00 38 1008.2
20260509160033 65 200 6.0 12.0 0.00 0.00 0.00 37 1008.3
20260509155533 66 171 5.0 12.0 0.00 0.00 0.00 40 1008.5
20260509155034 65 196 5.0 10.0 0.00 0.00 0.00 36 1008.5
20260509154533 66 125 5.0 11.0 0.00 0.00 0.00 35 1008.7
20260509154400 65 188 5.0 11.0 0.00 0.00 0.00 39 1008.7
20260509153533 65 177 6.0 14.0 0.00 0.00 0.00 34 1008.8
20260509153032 64 202 7.0 15.0 0.00 0.00 0.00 39 1008.9
20260509152532 64 193 6.0 15.0 0.00 0.00 0.00 36 1008.9
20260509152033 64 200 6.0 12.0 0.00 0.00 0.00 41 1009.0
20260509151532 64 201 7.0 14.0 0.00 0.00 0.00 39 1009.2
20260509151211 63 202 6.0 15.0 0.00 0.00 0.00 41 1009.3
20260509151205 63 192 6.0 17.0 0.00 0.00 0.00 40 1009.3
20260509151126 64 202 7.0 17.0 0.00 0.00 0.00 38 1009.2
20260509145534 63 207 5.0 15.0 0.00 0.00 0.00 41 1009.3
20260509145033 63 177 5.0 12.0 0.00 0.00 0.00 41 1009.4
20260509144538 63 182 6.0 19.0 0.00 0.00 0.00 44 1009.5
20260509144033 63 172 6.0 19.0 0.00 0.00 0.00 44 1009.5
20260509143915 63 157 6.0 12.0 0.00 0.00 0.00 44 1009.4
20260509143026 63 207 5.0 12.0 0.00 0.00 0.00 44 1009.5
20260509142529 62 180 5.0 10.0 0.00 0.00 0.00 44 1009.6
20260509142402 62 190 5.0 11.0 0.00 0.00 0.00 47 1009.6
20260509141526 62 189 6.0 12.0 0.00 0.00 0.00 45 1009.6
20260509141025 61 202 5.0 12.0 0.00 0.00 0.00 46 1009.6
20260509140523 61 193 5.0 13.0 0.00 0.00 0.00 47 1009.7
20260509140025 61 182 5.0 13.0 0.00 0.00 0.00 47 1009.7
20260509135522 60 184 5.0 11.0 0.00 0.00 0.00 48 1009.7
20260509135023 59 163 5.0 11.0 0.00 0.00 0.00 47 1009.7
20260509134906 59 202 4.0 11.0 0.00 0.00 0.00 48 1009.8
20260509134358 59 185 3.0 10.0 0.00 0.00 0.00 48 1009.8
20260509133520 58 226 3.0 10.0 0.00 0.00 0.00 47 1009.8
20260509133020 58 183 3.0 8.0 0.00 0.00 0.00 46 1009.8
20260509132519 57 182 3.0 10.0 0.00 0.00 0.00 49 1009.9
20260509132020 57 185 3.0 10.0 0.00 0.00 0.00 48 1009.9
20260509131521 56 223 3.0 7.0 0.00 0.00 0.00 49 1009.9
20260509131116 54 237 3.0 8.0 0.00 0.00 0.00 53 1010.0
20260509131110 54 201 3.0 10.0 0.00 0.00 0.00 52 1010.0
20260509131046 56 165 4.0 7.0 0.00 0.00 0.00 50 1010.0
20260509130633 55 217 4.0 7.0 0.00 0.00 0.00 51 1010.0
20260509125019 53 196 4.0 10.0 0.00 0.00 0.00 52 1010.0
20260509124906 53 190 4.0 12.0 0.00 0.00 0.00 53 1010.0
20260509124402 53 246 4.0 12.0 0.00 0.00 0.00 57 1010.2
20260509123520 52 163 4.0 9.0 0.00 0.00 0.00 56 1010.2
20260509123352 52 190 4.0 10.0 0.00 0.00 0.00 55 1010.3
20260509122519 52 211 5.0 10.0 0.00 0.00 0.00 55 1010.2
20260509122020 51 222 5.0 10.0 0.00 0.00 0.00 60 1010.3
20260509121858 50 183 5.0 10.0 0.00 0.00 0.00 59 1010.3
20260509121019 49 191 4.0 10.0 0.00 0.00 0.00 61 1010.3
20260509120519 48 202 4.0 9.0 0.00 0.00 0.00 63 1010.3
20260509120020 47 192 4.0 9.0 0.00 0.00 0.00 63 1010.3
20260509115834 46 197 4.0 10.0 0.00 0.00 0.00 64 1010.4
20260509115706 47 192 4.0 9.0 0.00 0.00 0.00 63 1010.3
20260509114520 46 193 4.0 10.0 0.00 0.00 0.00 64 1010.3
20260509114019 45 176 3.0 6.0 0.00 0.00 0.00 67 1010.3
20260509113520 44 192 3.0 6.0 0.00 0.00 0.00 68 1010.4
20260509113015 43 171 2.0 5.0 0.00 0.00 0.00 68 1010.4
20260509112515 42 180 2.0 5.0 0.00 0.00 0.00 68 1010.3
20260509112347 42 169 2.0 5.0 0.00 0.00 0.00 69 1010.4
20260509111522 42 153 3.0 6.0 0.00 0.00 0.00 70 1010.3
20260509111351 41 209 2.0 6.0 0.00 0.00 0.00 71 1010.3
20260509110514 40 167 2.0 5.0 0.00 0.00 0.00 74 1010.3
20260509110017 39 153 2.0 4.0 0.00 0.00 0.00 74 1010.2
20260509105537 39 159 1.0 4.0 0.00 0.00 0.00 75 1010.2
20260509105014 38 159 1.0 2.0 0.00 0.00 0.00 76 1010.1
20260509104515 38 159 0.0 1.0 0.00 0.00 0.00 76 1010.2
20260509104015 38 159 0.0 1.0 0.00 0.00 0.00 75 1010.3
20260509103517 38 159 0.0 1.0 0.00 0.00 0.00 75 1010.3
20260509103016 38 159 0.0 2.0 0.00 0.00 0.00 75 1010.3
20260509102519 38 159 1.0 4.0 0.00 0.00 0.00 75 1010.3
20260509102021 38 159 1.0 4.0 0.00 0.00 0.00 76 1010.3
20260509101851 38 157 1.0 3.0 0.00 0.00 0.00 76 1010.3
20260509101008 37 157 1.0 7.0 0.00 0.00 0.00 75 1010.2
20260509100509 37 156 1.0 7.0 0.00 0.00 0.00 75 1010.2
20260509100007 37 187 2.0 4.0 0.00 0.00 0.00 74 1010.2
20260509095515 37 192 1.0 4.0 0.00 0.00 0.00 74 1010.1
20260509095006 37 191 1.0 3.0 0.00 0.00 0.00 73 1010.0
20260509094507 38 192 1.0 3.0 0.00 0.00 0.00 73 1010.1
20260509094008 38 184 1.0 3.0 0.00 0.00 0.00 74 1010.0
20260509093504 38 184 2.0 5.0 0.00 0.00 0.00 74 1010.0
20260509093003 38 187 2.0 6.0 0.00 0.00 0.00 74 1010.0
20260509092507 38 169 2.0 6.0 0.00 0.00 0.00 74 1010.0
20260509092016 38 182 2.0 4.0 0.00 0.00 0.00 74 1010.0
20260509091502 38 193 2.0 5.0 0.00 0.00 0.00 75 1010.0
20260509091019 37 193 3.0 5.0 0.00 0.00 0.00 75 1010.0
20260509090503 37 191 3.0 5.0 0.00 0.00 0.00 76 1010.0
20260509090004 37 182 2.0 7.0 0.00 0.00 0.00 76 1010.1
20260509085502 37 234 2.0 7.0 0.00 0.00 0.00 77 1010.1
20260509085003 37 189 2.0 4.0 0.00 0.00 0.00 76 1010.1
20260509084503 37 186 2.0 4.0 0.00 0.00 0.00 76 1010.1
20260509084002 37 186 2.0 8.0 0.00 0.00 0.00 76 1010.1
20260509083821 37 196 2.0 8.0 0.00 0.00 0.00 76 1010.0
20260509083007 37 200 2.0 5.0 0.00 0.00 0.00 76 1010.1
20260509082506 37 200 2.0 5.0 0.00 0.00 0.00 76 1010.1
20260509082001 37 193 2.0 6.0 0.00 0.00 0.00 77 1010.1
20260509081454 37 186 2.0 6.0 0.00 0.00 0.00 76 1010.1
20260509080951 37 190 2.0 4.0 0.00 0.00 0.00 76 1010.1
20260509080449 37 190 2.0 3.0 0.00 0.00 0.00 76 1010.1
20260509075947 37 190 2.0 5.0 0.00 0.00 0.00 76 1010.1
20260509075447 37 188 2.0 5.0 0.00 0.00 0.00 76 1010.1
20260509075316 37 185 2.0 4.0 0.00 0.00 0.00 76 1010.2
20260509074446 37 186 2.0 6.0 0.00 0.00 0.00 76 1010.2
20260509073946 37 182 2.0 6.0 0.00 0.00 0.00 76 1010.2
20260509073825 37 198 2.0 4.0 0.00 0.00 0.00 76 1010.3
20260509072944 38 196 2.0 3.0 0.00 0.00 0.00 76 1010.4
20260509072444 38 196 2.0 3.0 0.00 0.00 0.00 76 1010.4
20260509071944 38 196 2.0 3.0 0.00 0.00 0.00 75 1010.4
20260509071443 38 198 2.0 4.0 0.00 0.00 0.00 75 1010.3
20260509070944 38 197 2.0 4.0 0.00 0.00 0.00 74 1010.3
20260509070446 39 198 2.0 4.0 0.00 0.00 0.00 74 1010.4
20260509065944 39 196 2.0 4.0 0.00 0.00 0.00 74 1010.4
20260509065445 39 192 2.0 4.0 0.00 0.00 0.00 74 1010.4
20260509064946 39 189 2.0 4.0 0.00 0.00 0.00 73 1010.4
20260509064651 40 189 2.0 4.0 0.00 0.00 0.00 73 1010.3
20260509064558 40 189 2.0 4.0 0.00 0.00 0.00 73 1010.4
20260509063442 40 207 2.0 4.0 0.00 0.00 0.00 73 1010.3
20260509062938 40 212 2.0 5.0 0.00 0.00 0.00 73 1010.3
20260509062438 40 213 3.0 6.0 0.00 0.00 0.00 73 1010.3
20260509061938 40 200 3.0 6.0 0.00 0.00 0.00 72 1010.3
20260509061439 40 195 3.0 6.0 0.00 0.00 0.00 72 1010.4
20260509061301 40 190 2.0 4.0 0.00 0.00 0.00 72 1010.5
20260509061137 40 205 2.0 6.0 0.00 0.00 0.00 72 1010.4